Location: Bannatyne
(13.0833°N, 59.5333°W)
Time: 05:19:49
(UTC+00:00)

LightSail 2 - Visible Passes

Search period start: 06 December 2019 00:00
Search period end: 16 December 2019 00:00
Orbit: 695 x 731 km, 24.0° (Epoch: 05 December)

Date Brightness Start Highest point End Pass type
(mag) Time Alt. Az. Time Alt. Az. Time Alt. Az.
06 Dec 6.3 23:09:34 10° NW 23:13:16 29° N 23:13:16 29° N visible
07 Dec 6.3 22:11:30 10° NW 22:15:51 27° N 22:19:01 15° ENE visible
07 Dec 7.4 23:56:48 10° WNW 23:58:00 17° NW 23:58:00 17° NW visible
08 Dec 5.6 22:58:47 10° NW 23:03:39 41° NNE 23:03:51 41° NNE visible
09 Dec 6.0 22:00:46 10° NW 22:05:27 34° NNE 22:09:46 12° ENE visible
09 Dec 6.6 23:46:03 10° WNW 23:48:46 32° WNW 23:48:46 32° WNW visible
10 Dec 5.1 22:47:58 10° WNW 22:53:06 63° NNE 22:54:48 40° E visible
11 Dec 5.5 21:49:56 10° WNW 21:54:57 48° NNE 21:59:55 10° E visible
11 Dec 5.7 23:35:28 10° WNW 23:39:57 53° SW 23:39:57 53° SW visible
12 Dec 5.2 22:37:15 10° WNW 22:42:27 81° SSW 22:46:13 19° ESE visible
13 Dec 7.8 00:23:51 10° WSW 00:25:15 16° WSW 00:25:15 16° WSW visible
13 Dec 6.6 23:25:10 10° W 23:29:47 32° SSW 23:31:38 25° SSE visible
14 Dec 6.1 22:26:42 10° W 22:31:42 47° SSW 22:36:38 10° SE visible
15 Dec 7.9 00:14:56 10° SW 00:17:07 13° SSW 00:17:09 13° SSW visible
15 Dec 7.6 23:15:26 10° WSW 23:19:00 19° SSW 23:22:33 10° SSE visible
